Time,TemperatureF,DewpointF,PressureIn,WindDirection,WindDirectionDegrees,WindSpeedMPH,WindSpeedGustMPH,Humidity,HourlyPrecipIn,Conditions,Clouds,dailyrainin,SoftwareType,DateUTC
2013-01-29 00:17:00,20.4,18.0,29.99,NE,53,0.0,1.0,91,0.00,,,0.00,weatherlink.com 1.10,2013-01-29 05:17:00,
2013-01-29 00:32:00,20.4,18.0,29.99,NE,53,0.0,0.0,91,0.00,,,0.00,weatherlink.com 1.10,2013-01-29 05:32:00,
2013-01-29 00:47:00,20.4,18.0,29.99,NE,53,0.0,0.0,91,0.00,,,0.00,weatherlink.com 1.10,2013-01-29 05:47:00,
2013-01-29 01:02:00,20.5,18.0,29.99,NE,53,0.0,1.0,91,0.00,,,0.00,weatherlink.com 1.10,2013-01-29 06:02:00,
2013-01-29 01:17:00,20.6,18.0,29.99,NE,53,0.0,0.0,91,0.00,,,0.00,weatherlink.com 1.10,2013-01-29 06:17:00,
2013-01-29 01:32:00,20.7,19.0,29.99,NE,53,0.0,1.0,91,0.00,,,0.00,weatherlink.com 1.10,2013-01-29 06:32:00,
2013-01-29 01:47:00,20.9,19.0,29.99,NE,53,0.0,0.0,91,0.00,,,0.00,weatherlink.com 1.10,2013-01-29 06:47:00,
2013-01-29 02:02:00,20.9,19.0,30.00,NE,53,0.0,0.0,91,0.00,,,0.00,weatherlink.com 1.10,2013-01-29 07:02:00,
2013-01-29 02:17:00,21.0,19.0,30.01,NE,53,0.0,0.0,91,0.00,,,0.00,weatherlink.com 1.10,2013-01-29 07:17:00,
2013-01-29 02:32:00,21.1,19.0,30.01,NE,53,0.0,0.0,91,0.00,,,0.00,weatherlink.com 1.10,2013-01-29 07:32:00,
2013-01-29 02:47:00,21.1,19.0,30.00,NE,53,0.0,1.0,91,0.00,,,0.00,weatherlink.com 1.10,2013-01-29 07:47:00,
2013-01-29 03:02:00,21.2,19.0,30.00,NE,53,0.0,1.0,91,0.00,,,0.00,weatherlink.com 1.10,2013-01-29 08:02:00,
2013-01-29 03:17:00,21.2,19.0,30.01,NE,53,0.0,0.0,91,0.00,,,0.00,weatherlink.com 1.10,2013-01-29 08:17:00,
2013-01-29 03:33:00,21.2,19.0,30.01,NE,53,0.0,1.0,91,0.00,,,0.00,weatherlink.com 1.10,2013-01-29 08:33:00,
2013-01-29 03:47:00,21.3,19.0,30.01,NE,53,0.0,1.0,91,0.00,,,0.00,weatherlink.com 1.10,2013-01-29 08:47:00,
2013-01-29 04:02:00,21.3,19.0,30.01,NE,53,0.0,1.0,91,0.00,,,0.00,weatherlink.com 1.10,2013-01-29 09:02:00,
2013-01-29 04:17:00,21.3,19.0,30.02,NE,53,0.0,0.0,91,0.00,,,0.00,weatherlink.com 1.10,2013-01-29 09:17:00,
2013-01-29 04:32:00,21.1,19.0,30.02,NE,53,0.0,0.0,91,0.00,,,0.00,weatherlink.com 1.10,2013-01-29 09:32:00,
2013-01-29 04:47:00,20.8,18.0,30.02,NE,53,0.0,0.0,90,0.00,,,0.00,weatherlink.com 1.10,2013-01-29 09:47:00,
2013-01-29 05:02:00,20.3,18.0,30.02,NE,53,0.0,0.0,90,0.00,,,0.00,weatherlink.com 1.10,2013-01-29 10:02:00,
2013-01-29 05:17:00,19.3,17.0,30.02,NE,53,0.0,0.0,90,0.00,,,0.00,weatherlink.com 1.10,2013-01-29 10:17:00,
2013-01-29 05:32:00,17.5,15.0,30.02,NE,53,0.0,0.0,89,0.00,,,0.00,weatherlink.com 1.10,2013-01-29 10:32:00,
2013-01-29 05:47:00,16.6,14.0,30.03,NE,53,0.0,0.0,90,0.00,,,0.00,weatherlink.com 1.10,2013-01-29 10:47:00,
2013-01-29 06:02:00,15.4,13.0,30.03,NE,53,0.0,0.0,90,0.00,,,0.00,weatherlink.com 1.10,2013-01-29 11:02:00,
2013-01-29 06:18:00,14.5,12.0,30.04,NE,53,0.0,0.0,89,0.00,,,0.00,weatherlink.com 1.10,2013-01-29 11:18:00,
2013-01-29 06:33:00,14.0,12.0,30.05,NE,53,0.0,0.0,90,0.00,,,0.00,weatherlink.com 1.10,2013-01-29 11:33:00,
2013-01-29 06:48:00,13.4,11.0,30.05,NE,53,0.0,0.0,90,0.00,,,0.00,weatherlink.com 1.10,2013-01-29 11:48:00,
2013-01-29 07:03:00,13.2,11.0,30.05,NE,53,0.0,0.0,91,0.00,,,0.00,weatherlink.com 1.10,2013-01-29 12:03:00,
2013-01-29 07:18:00,12.9,11.0,30.05,NE,53,0.0,1.0,90,0.00,,,0.00,weatherlink.com 1.10,2013-01-29 12:18:00,
2013-01-29 07:33:00,12.0,10.0,30.07,NE,53,0.0,1.0,90,0.00,,,0.00,weatherlink.com 1.10,2013-01-29 12:33:00,
2013-01-29 07:48:00,12.5,10.0,30.08,NE,53,0.0,1.0,91,0.00,,,0.00,weatherlink.com 1.10,2013-01-29 12:48:00,
2013-01-29 08:03:00,13.1,11.0,30.09,NE,53,0.0,1.0,91,0.00,,,0.00,weatherlink.com 1.10,2013-01-29 13:03:00,
2013-01-29 08:18:00,14.8,13.0,30.09,NE,53,0.0,1.0,93,0.00,,,0.00,weatherlink.com 1.10,2013-01-29 13:18:00,
2013-01-29 08:33:00,16.1,14.0,30.10,NE,53,0.0,0.0,91,0.00,,,0.00,weatherlink.com 1.10,2013-01-29 13:33:00,
2013-01-29 08:48:00,18.8,16.0,30.10,NE,53,1.0,1.0,90,0.00,,,0.00,weatherlink.com 1.10,2013-01-29 13:48:00,
2013-01-29 09:03:00,21.3,18.0,30.11,NE,53,0.0,1.0,88,0.00,,,0.00,weatherlink.com 1.10,2013-01-29 14:03:00,
2013-01-29 09:18:00,23.5,19.0,30.11,NE,53,0.0,2.0,84,0.00,,,0.00,weatherlink.com 1.10,2013-01-29 14:18:00,
2013-01-29 09:33:00,26.1,21.0,30.11,NE,53,0.0,1.0,82,0.03,,,0.03,weatherlink.com 1.10,2013-01-29 14:33:00,
2013-01-29 09:48:00,27.6,22.0,30.11,NE,53,0.0,0.0,78,0.05,,,0.05,weatherlink.com 1.10,2013-01-29 14:48:00,
2013-01-29 10:18:00,29.0,23.0,30.11,NE,53,0.0,2.0,78,0.08,,,0.08,weatherlink.com 1.10,2013-01-29 15:18:00,
2013-01-29 10:33:00,29.5,23.0,30.12,NE,53,0.0,2.0,77,0.06,,,0.09,weatherlink.com 1.10,2013-01-29 15:33:00,
2013-01-29 10:48:00,29.1,23.0,30.13,NE,53,1.0,2.0,77,0.05,,,0.10,weatherlink.com 1.10,2013-01-29 15:48:00,
2013-01-29 11:03:00,29.2,23.0,30.14,NE,53,0.0,1.0,77,0.05,,,0.12,weatherlink.com 1.10,2013-01-29 16:03:00,
2013-01-29 11:18:00,30.3,24.0,30.13,NE,53,0.0,2.0,76,0.05,,,0.13,weatherlink.com 1.10,2013-01-29 16:18:00,
2013-01-29 11:33:00,31.3,24.0,30.12,NE,53,0.0,2.0,75,0.05,,,0.14,weatherlink.com 1.10,2013-01-29 16:33:00,
2013-01-29 11:48:00,31.5,24.0,30.11,NE,53,0.0,2.0,73,0.06,,,0.16,weatherlink.com 1.10,2013-01-29 16:48:00,
2013-01-29 12:03:00,31.6,25.0,30.11,NE,53,0.0,1.0,76,0.05,,,0.17,weatherlink.com 1.10,2013-01-29 17:03:00,
2013-01-29 12:18:00,32.6,26.0,30.10,NE,53,0.0,1.0,75,0.06,,,0.19,weatherlink.com 1.10,2013-01-29 17:18:00,
2013-01-29 12:33:00,32.7,25.0,30.09,South,181,1.0,3.0,74,0.06,,,0.20,weatherlink.com 1.10,2013-01-29 17:33:00,
2013-01-29 12:48:00,32.5,25.0,30.09,South,182,0.0,3.0,75,0.05,,,0.21,weatherlink.com 1.10,2013-01-29 17:48:00,
2013-01-29 13:04:00,33.1,26.0,30.09,South,182,0.0,1.0,74,0.05,,,0.22,weatherlink.com 1.10,2013-01-29 18:04:00,
2013-01-29 13:34:00,33.8,27.0,30.08,South,182,0.0,2.0,76,0.05,,,0.25,weatherlink.com 1.10,2013-01-29 18:34:00,
2013-01-29 13:49:00,34.4,27.0,30.08,South,182,0.0,2.0,75,0.05,,,0.26,weatherlink.com 1.10,2013-01-29 18:49:00,
2013-01-29 14:04:00,34.4,27.0,30.07,South,182,0.0,2.0,75,0.05,,,0.27,weatherlink.com 1.10,2013-01-29 19:04:00,
2013-01-29 14:19:00,34.2,28.0,30.07,South,182,0.0,1.0,77,0.04,,,0.28,weatherlink.com 1.10,2013-01-29 19:19:00,
2013-01-29 14:34:00,34.2,28.0,30.07,South,182,0.0,1.0,77,0.03,,,0.28,weatherlink.com 1.10,2013-01-29 19:34:00,
2013-01-29 14:49:00,33.7,27.0,30.07,SSE,150,0.0,3.0,77,0.03,,,0.29,weatherlink.com 1.10,2013-01-29 19:49:00,
2013-01-29 15:04:00,33.3,27.0,30.07,South,187,2.0,4.0,77,0.02,,,0.29,weatherlink.com 1.10,2013-01-29 20:04:00,
2013-01-29 15:19:00,32.7,27.0,30.08,SSE,165,0.0,5.0,78,0.01,,,0.29,weatherlink.com 1.10,2013-01-29 20:19:00,
2013-01-29 15:34:00,32.5,27.0,30.08,SSW,201,0.0,3.0,79,0.01,,,0.29,weatherlink.com 1.10,2013-01-29 20:34:00,
2013-01-29 15:49:00,32.4,27.0,30.09,SSW,201,0.0,3.0,80,0.00,,,0.29,weatherlink.com 1.10,2013-01-29 20:49:00,
2013-01-29 16:04:00,32.2,27.0,30.08,South,173,0.0,3.0,80,0.00,,,0.29,weatherlink.com 1.10,2013-01-29 21:04:00,
2013-01-29 16:19:00,31.8,27.0,30.09,South,182,1.0,3.0,82,0.00,,,0.29,weatherlink.com 1.10,2013-01-29 21:19:00,
2013-01-29 16:34:00,31.6,27.0,30.08,South,182,0.0,1.0,83,0.00,,,0.29,weatherlink.com 1.10,2013-01-29 21:34:00,
2013-01-29 16:49:00,31.5,27.0,30.09,South,182,0.0,0.0,83,0.00,,,0.29,weatherlink.com 1.10,2013-01-29 21:49:00,
2013-01-29 17:04:00,31.4,27.0,30.09,South,182,0.0,0.0,84,0.00,,,0.29,weatherlink.com 1.10,2013-01-29 22:04:00,
2013-01-29 17:19:00,31.2,27.0,30.10,South,182,0.0,0.0,84,0.00,,,0.29,weatherlink.com 1.10,2013-01-29 22:19:00,
2013-01-29 17:34:00,31.2,27.0,30.11,South,182,0.0,1.0,85,0.00,,,0.29,weatherlink.com 1.10,2013-01-29 22:34:00,
2013-01-29 17:49:00,31.2,28.0,30.10,South,182,0.0,1.0,86,0.00,,,0.29,weatherlink.com 1.10,2013-01-29 22:49:00,
2013-01-29 18:04:00,31.2,28.0,30.10,South,177,0.0,1.0,86,0.00,,,0.29,weatherlink.com 1.10,2013-01-29 23:04:00,
2013-01-29 18:19:00,31.1,27.0,30.11,South,176,0.0,1.0,86,0.00,,,0.29,weatherlink.com 1.10,2013-01-29 23:19:00,
2013-01-29 18:34:00,31.1,27.0,30.11,South,176,0.0,0.0,86,0.00,,,0.29,weatherlink.com 1.10,2013-01-29 23:34:00,
2013-01-29 18:49:00,31.0,28.0,30.09,South,177,0.0,0.0,87,0.00,,,0.29,weatherlink.com 1.10,2013-01-29 23:49:00,
2013-01-29 19:19:00,31.0,28.0,30.09,South,178,0.0,2.0,88,0.00,,,0.29,weatherlink.com 1.10,2013-01-30 00:19:00,
2013-01-29 19:34:00,31.1,28.0,30.09,South,178,0.0,1.0,88,0.00,,,0.29,weatherlink.com 1.10,2013-01-30 00:34:00,
2013-01-29 19:49:00,31.1,28.0,30.10,South,183,0.0,3.0,89,0.00,,,0.29,weatherlink.com 1.10,2013-01-30 00:49:00,
2013-01-29 20:19:00,30.9,28.0,30.11,South,186,0.0,0.0,90,0.00,,,0.29,weatherlink.com 1.10,2013-01-30 01:19:00,
2013-01-29 20:34:00,31.0,29.0,30.09,South,186,3.0,3.0,91,0.00,,,0.29,weatherlink.com 1.10,2013-01-30 01:34:00,
2013-01-29 20:49:00,31.1,29.0,30.09,South,186,1.0,3.0,92,0.00,,,0.29,weatherlink.com 1.10,2013-01-30 01:49:00,
2013-01-29 21:04:00,31.2,30.0,30.09,South,190,3.0,4.0,94,0.00,,,0.29,weatherlink.com 1.10,2013-01-30 02:04:00,
2013-01-29 21:19:00,31.4,30.0,30.09,South,176,0.0,3.0,94,0.00,,,0.29,weatherlink.com 1.10,2013-01-30 02:19:00,
2013-01-29 21:34:00,31.5,30.0,30.09,South,176,0.0,3.0,94,0.00,,,0.29,weatherlink.com 1.10,2013-01-30 02:34:00,
2013-01-29 21:49:00,31.6,30.0,30.09,South,177,0.0,2.0,94,0.00,,,0.29,weatherlink.com 1.10,2013-01-30 02:49:00,
2013-01-29 22:04:00,31.7,30.0,30.08,South,176,0.0,2.0,94,0.00,,,0.29,weatherlink.com 1.10,2013-01-30 03:04:00,
2013-01-29 22:19:00,31.7,31.0,30.07,South,178,0.0,3.0,95,0.00,,,0.29,weatherlink.com 1.10,2013-01-30 03:19:00,
2013-01-29 22:34:00,31.7,31.0,30.07,SSE,164,3.0,3.0,95,0.00,,,0.29,weatherlink.com 1.10,2013-01-30 03:34:00,
2013-01-29 22:49:00,31.7,31.0,30.07,SSE,164,1.0,1.0,95,0.00,,,0.29,weatherlink.com 1.10,2013-01-30 03:49:00,
2013-01-29 23:04:00,31.7,31.0,30.07,SSE,164,0.0,3.0,95,0.00,,,0.29,weatherlink.com 1.10,2013-01-30 04:04:00,
2013-01-29 23:19:00,31.7,31.0,30.07,SSE,164,0.0,2.0,95,0.00,,,0.29,weatherlink.com 1.10,2013-01-30 04:19:00,
2013-01-29 23:34:00,31.7,31.0,30.06,SSE,156,0.0,3.0,95,0.00,,,0.29,weatherlink.com 1.10,2013-01-30 04:34:00,
2013-01-29 23:49:00,31.7,31.0,30.07,SSE,153,0.0,2.0,95,0.00,,,0.29,weatherlink.com 1.10,2013-01-30 04:49:00,